Location: Recife
(8.0585°S, 34.8848°W)
Time: 20:51:41
(UTC-03:00)

A-11 Canister half - Pass Details

Date: 18 April 2026
Orbit: 1515 x 1684 km, 47.2° (Epoch: 16 May)

Event Time Altitude Azimuth Distance (km) Brightness Sun altitude
Rises 15:39:42 0° 278° (W) 4,925 13.1 22.4°
Reaches altitude 10° 15:44:15 10° 261° (W) 3,946 12.5 21.3°
Maximum altitude 15:50:45 19° 220° (SW) 3,298 11.2 19.7°
Drops below altitude 10° 15:57:16 10° 179° (S) 3,930 11.0 18.2°
Sets 16:01:53 0° 161° (SSE) 4,898 11.3 17.1°
